sat.trackr.live / text

‹ back to catalog

SITRO-AIS 37

NORAD 61780 · 2024-199AX

PAYLOAD ACTIVE UNKNOWN

§ Identity

Operator
Country
CIS
Launch date
2024-11-04
Launch site
VOSTO
Launch vehicle
Mass (kg)
RCS (m²)

External: N2YO · Heavens-Above · Gunter

§ Orbital elements

Epoch: 2026-05-25T03:52:17.920128Z

Period
92.51 min
Inclination
97.2969°
Eccentricity
0.0007852
Mean motion
15.56638709 rev/d
Perigee alt
392.1 km
Apogee alt
402.7 km
Semi-major
6,775.5 km
B*
6.4815e-4
RAAN
20.7332°
Arg perigee
30.9099°
Mean anomaly
329.2617°
Rev number
13,085

§ Raw data

SITRO-AIS 371 61780U 24199AX  26145.16131852  .00046301  00000+0  64815-3 0  99922 61780  97.2969  20.7332 0007852  30.9099 329.2617 15.56638709130852

JSON: /api/v1/satellites/61780 · /tle

For live sub-satellite position, see the globe view (requires WebGL).

§ Visibility from observer

Set your observer location to see the next 7 days of passes ≥ 10°. The values pass through the URL so the page stays shareable.

No JS? Fill the form by hand. The geolocation button needs JavaScript.

§ Radio — SatNOGS DB

ModeDescriptionDownlinkUplink
GMSK USP Mode U - GMSK2k4 - USP 401.003 MHz

1 transmitter · refreshed weekly from db.satnogs.org